Tucumcari, NM

1:28 AM MDT on October 01, 2016 (GMT -0600)
Tucumcari Municipal

Weather History for KTCC - January, 2014

Change the Weather History Date:

Thursday, January 16, 2014

  Actual Average Record
Temperature  
Mean Temperature 39 °F -  
Max Temperature 52 °F 57 °F 79 °F (1974)
Min Temperature 26 °F 25 °F 0 °F (1925)
Degree Days  
Heating Degree Days 26    
Moisture  
Dew Point 15 °F    
Average Humidity 41    
Maximum Humidity 56    
Minimum Humidity 24    
Precipitation  
Precipitation 0.00 in - - ()
Sea Level Pressure  
Sea Level Pressure 30.18 in    
Wind  
Wind Speed 8 mph (ENE)    
Max Wind Speed 23 mph    
Max Gust Speed 28 mph    
Visibility 10 miles    
Events      
Averages and records for this station are not official NWS values.
T = Trace of Precipitation, MM = Missing Value Source: NWS Daily Summary

Daily Weather History Graph

Daily Weather History Graph

Search for Another Location

Airport or City:

Trip Planner

Search our weather history database for the weather conditions in past years. The results will help you decide how hot, cold, wet, or windy it might be!

Date:

Astronomy

Jan. 16, 2014 Rise Set
Actual Time 7:02 AM MST 5:06 PM MST
Civil Twilight 6:34 AM MST 5:34 PM MST
Nautical Twilight 6:03 AM MST 6:05 PM MST
Astronomical Twilight 5:32 AM MST 6:35 PM MST
Moon 5:56 PM MST (1/16) 7:00 AM MST (1/16)
Length of Visible Light 10h 59m
Length of Day
10h 04m
Full, 100% of the Moon is Illuminated
Jan 16
Full
Jan 23
Last Quarter
Jan 30
New
Feb 6
First Quarter
Feb 14
Full

Hourly Weather History & Observations

Time (MST) Temp. Windchill Dew Point Humidity Pressure Visibility Wind Dir Wind Speed Gust Speed Precip Events Conditions
12:53 AM 39.0 °F 31.8 °F 15.1 °F 38% 30.00 in 10.0 mi NNW 11.5 mph - N/A   Clear
1:53 AM 30.0 °F 23.2 °F 14.0 °F 51% 30.03 in 10.0 mi West 6.9 mph - N/A   Clear
2:53 AM 32.0 °F 26.4 °F 14.0 °F 48% 30.05 in 10.0 mi WNW 5.8 mph - N/A   Clear
3:53 AM 30.9 °F 26.2 °F 14.0 °F 50% 30.04 in 10.0 mi SSW 4.6 mph - N/A   Clear
4:53 AM 28.9 °F 22.8 °F 12.9 °F 51% 30.07 in 10.0 mi North 5.8 mph - N/A   Clear
5:53 AM 26.1 °F 21.9 °F 10.9 °F 53% 30.13 in 10.0 mi West 3.5 mph - N/A   Clear
6:53 AM 27.0 °F 18.0 °F 12.0 °F 53% 30.17 in 10.0 mi WNW 9.2 mph - N/A   Clear
7:53 AM 30.9 °F 27.5 °F 14.0 °F 50% 30.19 in 10.0 mi North 3.5 mph - N/A   Clear
8:53 AM 41.0 °F - 17.1 °F 38% 30.22 in 10.0 mi Calm Calm - N/A   Clear
9:53 AM 48.9 °F - 17.1 °F 28% 30.22 in 10.0 mi Calm Calm - N/A   Clear
10:53 AM 52.0 °F - 16.0 °F 24% 30.22 in 10.0 mi East 23.0 mph 27.6 mph N/A   Clear
11:53 AM 51.1 °F - 18.0 °F 27% 30.20 in 10.0 mi East 15.0 mph 23.0 mph N/A   Clear
12:53 PM 51.1 °F - 18.0 °F 27% 30.16 in 10.0 mi East 12.7 mph 18.4 mph N/A   Clear
1:53 PM 52.0 °F - 18.0 °F 26% 30.17 in 10.0 mi ESE 6.9 mph - N/A   Clear
2:53 PM 52.0 °F - 18.0 °F 26% 30.16 in 10.0 mi East 5.8 mph - N/A   Clear
3:53 PM 52.0 °F - 17.1 °F 25% 30.17 in 10.0 mi East 10.4 mph - N/A   Clear
4:53 PM 48.0 °F - 17.1 °F 29% 30.17 in 10.0 mi ESE 8.1 mph - N/A   Clear
5:53 PM 41.0 °F 35.2 °F 16.0 °F 36% 30.22 in 10.0 mi East 9.2 mph - N/A   Clear
6:53 PM 36.0 °F 31.1 °F 14.0 °F 41% 30.24 in 10.0 mi East 5.8 mph - N/A   Clear
7:53 PM 33.1 °F 26.1 °F 14.0 °F 46% 30.27 in 10.0 mi ENE 8.1 mph - N/A   Clear
8:53 PM 30.0 °F 24.1 °F 12.9 °F 49% 30.28 in 10.0 mi ENE 5.8 mph - N/A   Clear
9:53 PM 30.9 °F 26.2 °F 14.0 °F 50% 30.29 in 10.0 mi ENE 4.6 mph - N/A   Clear
10:53 PM 30.9 °F 26.2 °F 14.0 °F 50% 30.28 in 10.0 mi ENE 4.6 mph - N/A   Clear
11:53 PM 27.0 °F 19.5 °F 12.9 °F 56% 30.31 in 10.0 mi NNE 6.9 mph - N/A   Clear